1484330400.46,49134,6.0,71316.8,-10.75,-12.39,-12.39,0,*68
1484330401.67,49135,6.0,71320.0,-10.77,-12.43,-12.43,0,*6B
1484330402.88,49136,6.0,71318.3,-10.77,-12.47,-12.47,0,*68
1484330404.09,49137,6.0,71318.8,-10.77,-12.43,-12.47,0,*6D
1484330405.3,49138,5.94,71312.0,-10.77,-12.43,-12.47,0,*62
1484330406.51,49139,6.0,71318.0,-10.77,-12.43,-12.47,0,*63
1484330407.72,49140,5.94,71316.3,-10.77,-12.43,-12.47,0,*6D
1484330408.96,49141,6.0,71316.5,-10.75,-12.43,-12.43,0,*6A
1484330410.17,49142,5.94,71314.8,-10.77,-12.47,-12.47,0,*6B
1484330411.38,49143,6.0,71316.8,-10.77,-12.47,-12.43,0,*6E
1484330412.59,49144,6.0,71316.8,-10.77,-12.47,-12.43,0,*69
1484330413.83,49145,6.0,71318.3,-10.75,-12.39,-12.39,0,*6E
1484330415.04,49146,6.0,71316.8,-10.77,-12.43,-12.43,0,*6F
1484330416.31,49147,6.0,71318.8,-10.77,-12.35,-12.35,0,*6E
1484330417.52,49148,6.0,71318.3,-10.77,-12.43,-12.47,0,*65
1484330418.73,49149,6.0,71320.3,-10.77,-12.47,-12.47,0,*60
1484330419.97,49150,6.0,71318.3,-10.75,-12.43,-12.43,0,*6A
1484330421.21,49151,6.0,71320.8,-10.79,-12.47,-12.47,0,*67
1484330422.45,49152,5.94,71314.5,-10.75,-12.43,-12.43,0,*68
1484330423.66,49153,6.0,71322.0,-10.77,-12.47,-12.43,0,*6F
1484330424.87,49154,6.0,71320.8,-10.77,-12.47,-12.43,0,*68
1484330426.08,49155,5.94,71316.3,-10.77,-12.47,-12.43,0,*69
1484330427.32,49156,6.0,71320.8,-10.77,-12.57,-12.43,0,*6B
1484330428.59,49157,6.0,71320.3,-10.79,-12.57,-12.43,0,*64
1484330429.8,49158,6.0,71322.3,-10.77,-12.47,-12.43,0,*64
1484330431.01,49159,6.0,71318.8,-10.77,-12.47,-12.43,0,*65
1484330432.22,49160,6.0,71320.5,-10.77,-12.47,-12.47,0,*6B
1484330433.43,49161,6.0,71320.0,-10.77,-12.47,-12.47,0,*6A
1484330434.65,49162,6.0,71320.8,-10.77,-12.47,-12.47,0,*69
1484330435.86,49163,6.0,71318.5,-10.77,-12.47,-12.47,0,*68
1484330437.1,49164,6.0,71322.3,-10.75,-12.43,-12.47,0,*69
1484330438.31,49165,6.0,71320.3,-10.77,-12.47,-12.47,0,*6E
1484330439.55,49166,6.0,71322.3,-10.79,-12.47,-12.47,0,*63
1484330440.79,49167,6.0,71320.0,-10.79,-12.47,-12.47,0,*62
1484330442.03,49168,6.0,71318.8,-10.79,-12.47,-12.47,0,*6D
1484330443.27,49169,6.0,71320.3,-10.79,-12.47,-12.47,0,*6C
1484330444.52,49170,6.0,71322.5,-10.79,-12.47,-12.43,0,*60
1484330445.73,49171,5.94,71316.8,-10.77,-12.47,-12.43,0,*6F
1484330446.94,49172,6.0,71320.3,-10.77,-12.47,-12.43,0,*6C
1484330448.18,49173,5.94,71318.0,-10.79,-12.43,-12.43,0,*67
1484330449.39,49174,6.0,71320.8,-10.77,-12.47,-12.43,0,*6A
1484330450.6,49175,5.94,71318.5,-10.77,-12.47,-12.43,0,*6B
1484330451.81,49176,6.0,71322.0,-10.77,-12.47,-12.43,0,*68
1484330453.05,49177,5.94,71318.5,-10.77,-12.47,-12.57,0,*6C
1484330454.28,49178,6.0,71316.3,-10.77,-12.47,-12.57,0,*63
1484330455.49,49179,5.94,71316.0,-10.77,-12.47,-12.47,0,*63
1484330456.71,49180,6.0,71318.8,-10.77,-12.47,-12.47,0,*65
1484330457.92,49181,6.0,71320.8,-10.77,-12.43,-12.43,0,*64
1484330459.12,49182,5.94,71318.5,-10.77,-12.43,-12.43,0,*67
1484330460.36,49183,6.0,71322.0,-10.77,-12.57,-12.43,0,*63
1484330461.57,49184,6.0,71322.8,-10.77,-12.47,-12.47,0,*61
1484330462.78,49185,6.0,71320.5,-10.77,-12.47,-12.47,0,*60
1484330464.0,49186,6.0,71320.8,-10.77,-12.47,-12.47,0,*63
1484330465.21,49187,6.0,71324.8,-10.77,-12.47,-12.47,0,*62
1484330466.45,49188,6.0,71326.3,-10.75,-12.43,-12.39,0,*62
1484330467.68,49189,6.0,71322.8,-10.77,-12.57,-12.43,0,*69
1484330468.9,49190,5.94,71322.5,-10.77,-12.47,-12.43,0,*60
1484330470.14,49191,6.0,71324.3,-10.75,-12.43,-12.43,0,*67
1484330471.4,49192,5.94,71320.5,-10.77,-12.57,-12.57,0,*66
1484330472.61,49193,6.0,71320.8,-10.77,-12.47,-12.47,0,*67
1484330473.82,49194,5.94,71322.5,-10.77,-12.47,-12.47,0,*60
1484330475.09,49195,6.0,71322.5,-10.75,-12.53,-12.43,0,*62
1484330476.3,49196,6.0,71322.8,-10.77,-12.47,-12.43,0,*66
1484330477.54,49197,5.94,71318.5,-10.77,-12.57,-12.47,0,*62
1484330478.77,49198,6.0,71322.3,-10.77,-12.47,-12.57,0,*6D
1484330480.01,49199,5.94,71322.0,-10.77,-12.57,-12.47,0,*6C
1484330481.25,49200,5.94,71320.5,-10.75,-12.43,-12.43,0,*6C
1484330482.49,49201,6.0,71320.3,-10.77,-12.53,-12.43,0,*6E
1484330483.72,49202,5.94,71316.0,-10.77,-12.61,-12.47,0,*68
1484330484.96,49203,5.94,71318.8,-10.77,-12.57,-12.47,0,*6C
1484330486.2,49204,6.0,71322.5,-10.77,-12.57,-12.47,0,*6B
1484330487.43,49205,5.94,71318.3,-10.77,-12.57,-12.47,0,*6A
1484330488.64,49206,6.0,71322.0,-10.77,-12.47,-12.47,0,*68
1484330489.88,49207,5.94,71316.5,-10.77,-12.57,-12.47,0,*68
1484330491.09,49208,5.94,71318.8,-10.77,-12.47,-12.47,0,*66
1484330492.33,49209,6.0,71320.0,-10.77,-12.57,-12.47,0,*66
1484330493.62,49210,6.0,71322.0,-10.75,-12.57,-12.53,0,*69
1484330494.89,49211,5.94,71318.3,-10.75,-12.57,-12.43,0,*69
1484330496.16,49212,6.0,71320.3,-10.75,-12.53,-12.47,0,*6A
1484330497.43,49213,5.94,71318.3,-10.75,-12.53,-12.43,0,*6F
1484330498.67,49214,5.94,71316.3,-10.75,-12.43,-12.43,0,*69
1484330499.88,49215,6.0,71322.5,-10.77,-12.47,-12.43,0,*6E
1484330501.09,49216,5.94,71322.5,-10.77,-12.47,-12.43,0,*6D
1484330502.33,49217,5.94,71322.5,-10.77,-12.57,-12.43,0,*6D
1484330503.57,49218,5.94,71320.3,-10.77,-12.57,-12.43,0,*62
1484330504.78,49219,5.94,71320.0,-10.77,-12.43,-12.39,0,*6B
1484330506.03,49220,5.94,71318.5,-10.77,-12.61,-12.57,0,*69
1484330507.27,49221,5.94,71318.8,-10.77,-12.57,-12.47,0,*6C
1484330508.5,49222,5.94,71318.5,-10.77,-12.61,-12.47,0,*6A
1484330509.74,49223,5.94,71316.5,-10.77,-12.57,-12.47,0,*6E
1484330510.98,49224,5.94,71316.0,-10.77,-12.57,-12.47,0,*69
1484330512.19,49225,5.94,71320.0,-10.77,-12.47,-12.47,0,*69
1484330513.42,49226,5.94,71316.0,-10.77,-12.57,-12.47,0,*6B
1484330514.66,49227,5.94,71318.0,-10.77,-12.57,-12.47,0,*6A
1484330515.9,49228,5.94,71320.5,-10.77,-12.57,-12.47,0,*65
1484330517.14,49229,5.94,71318.8,-10.75,-12.43,-12.43,0,*67
1484330518.35,49230,5.94,71318.5,-10.77,-12.47,-12.47,0,*6D
1484330519.61,49231,6.0,71322.5,-10.77,-12.61,-12.57,0,*69
1484330520.84,49232,5.94,71314.8,-10.77,-12.57,-12.47,0,*6E
1484330522.08,49233,6.0,71320.5,-10.75,-12.43,-12.43,0,*6C
1484330523.34,49234,5.94,71322.5,-10.77,-12.57,-12.57,0,*69
1484330524.58,49235,5.94,71316.5,-10.77,-12.57,-12.47,0,*69
1484330525.81,49236,5.94,71316.3,-10.77,-12.61,-12.47,0,*6F
1484330527.11,49237,6.0,71318.3,-10.75,-12.53,-12.53,0,*68
1484330528.38,49238,5.94,71316.0,-10.75,-12.53,-12.43,0,*66
1484330529.62,49239,5.94,71314.8,-10.77,-12.57,-12.47,0,*65
1484330530.88,49240,5.94,71318.0,-10.77,-12.57,-12.57,0,*6A
1484330532.11,49241,6.0,71318.3,-10.77,-12.57,-12.47,0,*6A
1484330533.35,49242,5.94,71318.0,-10.77,-12.47,-12.57,0,*69
1484330534.61,49243,5.94,71320.0,-10.77,-12.57,-12.57,0,*69
1484330535.88,49244,5.94,71316.0,-10.75,-12.53,-12.43,0,*6D
1484330537.17,49245,5.94,71318.0,-10.75,-12.53,-12.57,0,*69
1484330538.43,49246,5.94,71316.0,-10.77,-12.57,-12.57,0,*6C
1484330539.69,49247,6.0,71320.8,-10.77,-12.57,-12.57,0,*6D
1484330540.95,49248,5.94,71316.5,-10.77,-12.57,-12.57,0,*62
1484330542.21,49249,5.94,71318.5,-10.77,-12.57,-12.57,0,*63
1484330543.42,49250,5.94,71318.3,-10.77,-12.47,-12.47,0,*6B
1484330544.68,49251,5.94,71318.5,-10.77,-12.57,-12.57,0,*6A
1484330545.94,49252,5.94,71318.8,-10.77,-12.57,-12.57,0,*69
1484330547.15,49253,5.94,71316.3,-10.77,-12.47,-12.47,0,*68
1484330548.37,49254,5.94,71318.0,-10.77,-12.47,-12.47,0,*6F
1484330549.61,49255,6.0,71320.5,-10.79,-12.47,-12.47,0,*60
1484330550.9,49256,5.94,71320.0,-10.79,-12.57,-12.57,0,*63
1484330552.11,49257,5.94,71316.5,-10.77,-12.47,-12.47,0,*6C
1484330553.35,49258,5.94,71320.8,-10.77,-12.57,-12.47,0,*62
1484330554.64,49259,6.0,71320.5,-10.75,-12.53,-12.57,0,*64
1484330555.94,49260,5.94,71320.8,-10.75,-12.53,-12.53,0,*6A
1484330557.2,49261,6.0,71322.3,-10.75,-12.43,-12.57,0,*6E
1484330558.44,49262,6.0,71320.3,-10.77,-12.47,-12.57,0,*6B
1484330559.68,49263,5.94,71318.3,-10.75,-12.43,-12.43,0,*69
1484330560.94,49264,5.94,71318.8,-10.79,-12.47,-12.57,0,*63
1484330562.2,49265,6.0,71322.0,-10.77,-12.61,-12.57,0,*68
1484330563.43,49266,5.94,71316.8,-10.77,-12.47,-12.57,0,*6F
1484330564.69,49267,6.0,71322.0,-10.77,-12.57,-12.57,0,*6F
1484330565.96,49268,5.94,71322.3,-10.77,-12.57,-12.57,0,*60
1484330567.22,49269,5.94,71318.0,-10.77,-12.57,-12.61,0,*64
1484330568.45,49270,6.0,71320.0,-10.77,-12.47,-12.61,0,*6D
1484330569.69,49271,5.94,71322.5,-10.77,-12.57,-12.47,0,*69
1484330570.92,49272,6.0,71320.8,-10.77,-12.57,-12.47,0,*6A
1484330572.13,49273,5.94,71322.8,-10.77,-12.47,-12.47,0,*6A
1484330573.37,49274,5.94,71322.3,-10.77,-12.47,-12.57,0,*6C
1484330574.61,49275,5.94,71320.0,-10.77,-12.47,-12.57,0,*6D
1484330575.84,49276,5.94,71320.0,-10.77,-12.57,-12.47,0,*6E
1484330577.05,49277,5.94,71320.3,-10.77,-12.43,-12.47,0,*6A
1484330578.26,49278,5.94,71320.0,-10.77,-12.43,-12.47,0,*65
1484330579.5,49279,5.94,71322.0,-10.75,-12.39,-12.47,0,*6B
1484330580.71,49280,5.94,71320.0,-10.77,-12.43,-12.47,0,*62
1484330581.92,49281,5.94,71320.8,-10.77,-12.39,-12.43,0,*6A
1484330583.13,49282,5.94,71320.5,-10.77,-12.39,-12.39,0,*64
1484330584.37,49283,6.0,71324.0,-10.75,-12.39,-12.43,0,*6A
1484330585.58,49284,5.94,71322.3,-10.77,-12.43,-12.43,0,*62
1484330586.79,49285,5.94,71322.3,-10.77,-12.43,-12.43,0,*63
1484330588.0,49286,6.0,71322.8,-10.77,-12.43,-12.39,0,*6D
1484330589.21,49287,5.94,71322.0,-10.77,-12.43,-12.43,0,*61
1484330590.44,49288,6.0,71324.0,-10.77,-12.35,-12.43,0,*6F
1484330591.65,49289,5.94,71320.0,-10.77,-12.43,-12.43,0,*6F
1484330592.86,49290,6.0,71324.8,-10.77,-12.43,-12.43,0,*67
1484330594.1,49291,5.94,71322.3,-10.77,-12.43,-12.35,0,*67
1484330595.36,49292,5.94,71320.8,-10.77,-12.35,-12.35,0,*65
1484330596.63,49293,5.94,71320.0,-10.77,-12.35,-12.35,0,*64
1484330597.85,49294,6.0,71324.3,-10.77,-12.29,-12.43,0,*6F
1484330599.06,49295,5.94,71320.0,-10.77,-12.29,-12.29,0,*62
1484330600.3,49296,5.94,71320.3,-10.77,-12.35,-12.43,0,*60
1484330601.52,49297,5.94,71322.8,-10.77,-12.25,-12.39,0,*6D
1484330602.73,49298,5.94,71326.8,-10.77,-12.29,-12.29,0,*6F
1484330603.97,49299,6.0,71326.8,-10.77,-12.35,-12.43,0,*6F
1484330605.21,49300,5.94,71326.3,-10.77,-12.29,-12.35,0,*62
1484330606.42,49301,5.94,71320.8,-10.77,-12.43,-12.43,0,*6E
1484330607.63,49302,5.94,71320.8,-10.77,-12.43,-12.43,0,*6D
1484330608.9,49303,5.94,71320.8,-10.77,-12.35,-12.35,0,*6C
1484330610.14,49304,5.94,71320.3,-10.75,-12.39,-12.39,0,*69
1484330611.38,49305,5.94,71324.3,-10.77,-12.35,-12.43,0,*6B
1484330612.62,49306,5.94,71322.3,-10.77,-12.35,-12.43,0,*68
1484330613.83,49307,5.94,71322.0,-10.77,-12.29,-12.43,0,*64
1484330615.1,49308,5.94,71322.8,-10.77,-12.35,-12.35,0,*67
1484330616.33,49309,5.94,71322.0,-10.77,-12.35,-12.43,0,*67
1484330617.57,49310,5.94,71320.3,-10.77,-12.35,-12.43,0,*6F
1484330618.79,49311,5.94,71320.0,-10.77,-12.29,-12.43,0,*63
1484330620.0,49312,5.94,71320.8,-10.77,-12.29,-12.43,0,*60
1484330621.27,49313,5.94,71322.8,-10.77,-12.35,-12.35,0,*6D
1484330622.48,49314,5.94,71320.0,-10.77,-12.29,-12.43,0,*66
1484330623.69,49315,5.94,71322.0,-10.77,-12.43,-12.43,0,*6B
1484330624.9,49316,5.94,71322.8,-10.77,-12.43,-12.39,0,*65
1484330626.11,49317,5.94,71320.5,-10.77,-12.43,-12.43,0,*69
1484330627.32,49318,5.94,71320.0,-10.77,-12.43,-12.43,0,*66
1484330628.56,49319,5.94,71322.8,-10.77,-12.35,-12.43,0,*66
1484330629.8,49320,5.94,71320.8,-10.77,-12.35,-12.43,0,*6C
1484330631.06,49321,5.94,71322.5,-10.77,-12.35,-12.35,0,*6C
1484330632.31,49322,5.94,71322.3,-10.75,-12.29,-12.39,0,*6C
1484330633.55,49323,5.94,71324.3,-10.77,-12.35,-12.43,0,*6F
1484330634.78,49324,5.94,71322.5,-10.77,-12.35,-12.47,0,*6C
1484330635.99,49325,5.94,71322.8,-10.77,-12.43,-12.47,0,*6C
1484330637.23,49326,5.94,71320.5,-10.75,-12.39,-12.43,0,*64
1484330638.47,49327,5.94,71322.0,-10.77,-12.35,-12.43,0,*6B
1484330639.68,49328,5.94,71322.3,-10.77,-12.43,-12.43,0,*65
1484330640.89,49329,5.94,71322.8,-10.77,-12.43,-12.47,0,*60
1484330642.1,49330,5.94,71322.3,-10.77,-12.43,-12.47,0,*68
1484330643.34,49331,5.94,71320.0,-10.75,-12.39,-12.43,0,*62
1484330644.55,49332,5.94,71320.3,-10.77,-12.43,-12.47,0,*6A
1484330645.78,49333,5.94,71320.8,-10.77,-12.35,-12.47,0,*6A
1484330647.02,49334,5.94,71320.8,-10.75,-12.39,-12.39,0,*6A
1484330648.27,49335,5.94,71322.3,-10.75,-12.29,-12.39,0,*6A
1484330649.51,49336,5.94,71320.3,-10.77,-12.35,-12.43,0,*6B
1484330650.72,49337,5.94,71322.0,-10.77,-12.43,-12.39,0,*66
1484330651.96,49338,5.94,71320.3,-10.75,-12.29,-12.39,0,*67
1484330653.2,49339,5.94,71316.0,-10.77,-12.35,-12.43,0,*64
1484330654.44,49340,5.94,71316.5,-10.77,-12.35,-12.43,0,*6A
1484330655.69,49341,5.94,71322.8,-10.75,-12.29,-12.29,0,*68
1484330656.93,49342,5.94,71318.0,-10.77,-12.35,-12.43,0,*68
1484330658.17,49343,6.0,71324.3,-10.75,-12.25,-12.39,0,*67
1484330659.41,49344,5.94,71320.5,-10.77,-12.35,-12.43,0,*6E
1484330660.66,49345,5.94,71320.0,-10.75,-12.29,-12.39,0,*6D
1484330661.9,49346,5.94,71320.0,-10.75,-12.39,-12.39,0,*6F
1484330663.14,49347,5.94,71324.3,-10.77,-12.35,-12.43,0,*6D
1484330664.37,49348,5.94,71322.5,-10.77,-12.43,-12.35,0,*62
1484330665.62,49349,5.94,71320.5,-10.77,-12.29,-12.35,0,*6F
1484330666.86,49350,5.94,71322.0,-10.75,-12.39,-12.39,0,*68
1484330668.1,49351,5.94,71326.5,-10.75,-12.39,-12.39,0,*69
1484330669.35,49352,5.94,71324.5,-10.75,-12.29,-12.29,0,*6A
1484330670.61,49353,5.94,71320.5,-10.75,-12.15,-12.25,0,*68
1484330671.83,49354,5.94,71322.8,-10.77,-12.29,-12.29,0,*6E
1484330673.05,49355,5.94,71318.5,-10.77,-12.21,-12.29,0,*67
1484330674.29,49356,5.94,71322.3,-10.77,-12.35,-12.29,0,*61
1484330675.56,49357,5.94,71320.3,-10.77,-12.35,-12.35,0,*6D
1484330676.8,49358,5.94,71324.0,-10.77,-12.35,-12.29,0,*6F
1484330678.06,49359,5.94,71326.5,-10.77,-12.35,-12.35,0,*63
1484330679.31,49360,5.94,71322.5,-10.75,-12.29,-12.25,0,*67
1484330680.56,49361,5.94,71326.5,-10.75,-12.29,-12.25,0,*66
1484330681.77,49362,5.94,71326.8,-10.77,-12.43,-12.29,0,*67
1484330683.03,49363,5.94,71320.8,-10.77,-12.35,-12.35,0,*6A
1484330684.27,49364,5.94,71322.0,-10.75,-12.39,-12.29,0,*6E
1484330685.48,49365,5.94,71326.5,-10.77,-12.43,-12.43,0,*6C
1484330686.73,49366,5.94,71322.5,-10.75,-12.29,-12.29,0,*6D
1484330688.0,49367,5.94,71322.5,-10.77,-12.35,-12.35,0,*6E
1484330689.26,49368,5.94,71322.3,-10.77,-12.35,-12.35,0,*61
1484330690.53,49369,5.94,71320.5,-10.77,-12.35,-12.35,0,*60
1484330691.74,49370,6.0,71326.3,-10.77,-12.43,-12.43,0,*68
1484330693.01,49371,5.94,71322.8,-10.77,-12.35,-12.35,0,*69
1484330694.25,49372,5.94,71322.5,-10.75,-12.39,-12.29,0,*69
1484330695.49,49373,5.94,71326.3,-10.75,-12.39,-12.29,0,*68
1484330696.73,49374,5.94,71324.5,-10.75,-12.39,-12.29,0,*6F
1484330698.0,49375,5.94,71320.3,-10.77,-12.35,-12.35,0,*6D
1484330699.27,49376,5.94,71322.0,-10.77,-12.35,-12.35,0,*6E
1484330700.48,49377,5.94,71324.0,-10.77,-12.29,-12.21,0,*67
1484330701.72,49378,5.94,71322.3,-10.77,-12.35,-12.29,0,*6D
1484330702.94,49379,5.94,71326.8,-10.77,-12.29,-12.29,0,*61
1484330704.15,49380,5.94,71324.5,-10.77,-12.43,-12.43,0,*67
1484330705.39,49381,5.94,71324.0,-10.77,-12.43,-12.35,0,*67
1484330706.63,49382,5.94,71320.8,-10.75,-12.29,-12.25,0,*6B
1484330707.9,49383,5.94,71320.0,-10.77,-12.35,-12.35,0,*64
1484330709.14,49384,5.94,71322.8,-10.75,-12.29,-12.39,0,*60
1484330710.38,49385,5.94,71324.3,-10.75,-12.39,-12.39,0,*60
1484330711.6,49386,5.94,71322.3,-10.77,-12.29,-12.29,0,*61
1484330712.85,49387,5.94,71322.5,-10.75,-12.29,-12.39,0,*63
1484330714.06,49388,5.94,71320.8,-10.77,-12.43,-12.43,0,*6F
1484330715.3,49389,5.94,71318.3,-10.75,-12.39,-12.39,0,*6C
1484330716.54,49390,5.94,71326.0,-10.75,-12.39,-12.39,0,*64
1484330717.75,49391,5.94,71320.5,-10.77,-12.43,-12.43,0,*67
1484330718.99,49392,5.94,71320.3,-10.75,-12.39,-12.39,0,*66
1484330720.23,49393,5.94,71322.0,-10.75,-12.39,-12.39,0,*67
1484330721.47,49394,5.94,71322.0,-10.75,-12.29,-12.39,0,*61
1484330722.72,49395,5.94,71322.0,-10.75,-12.29,-12.39,0,*60
1484330723.93,49396,5.94,71320.5,-10.77,-12.43,-12.43,0,*60
1484330725.14,49397,5.94,71322.8,-10.77,-12.43,-12.39,0,*6C
1484330726.36,49398,5.94,71320.3,-10.77,-12.29,-12.39,0,*6F
1484330727.6,49399,5.94,71320.5,-10.75,-12.39,-12.39,0,*6D
1484330728.8,49400,5.94,71322.3,-10.77,-12.43,-12.43,0,*68
1484330730.05,49401,5.94,71322.8,-10.75,-12.39,-12.39,0,*6B
1484330731.28,49402,5.94,71322.5,-10.77,-12.35,-12.43,0,*6B
1484330732.55,49403,5.94,71324.0,-10.77,-12.35,-12.35,0,*6B
1484330733.79,49404,5.94,71324.3,-10.77,-12.43,-12.35,0,*6D
1484330735.0,49405,5.94,71320.5,-10.77,-12.43,-12.43,0,*6D
1484330736.21,49406,5.94,71322.3,-10.77,-12.39,-12.39,0,*6E
1484330737.47,49407,5.94,71322.5,-10.77,-12.35,-12.35,0,*6F
1484330738.74,49408,5.94,71320.0,-10.77,-12.35,-12.35,0,*60
1484330739.98,49409,5.94,71320.0,-10.77,-12.29,-12.35,0,*6C
1484330741.2,49410,5.94,71318.8,-10.77,-12.29,-12.29,0,*69
1484330742.47,49411,5.94,71320.3,-10.75,-12.25,-12.15,0,*69
1484330743.68,49412,5.94,71320.5,-10.77,-12.29,-12.29,0,*6B
1484330744.93,49413,5.94,71320.0,-10.75,-12.25,-12.29,0,*64
1484330746.18,49414,5.94,71320.5,-10.75,-12.25,-12.25,0,*6F
1484330747.39,49415,5.94,71320.8,-10.77,-12.29,-12.29,0,*6C
1484330748.64,49416,5.94,71324.0,-10.75,-12.25,-12.25,0,*6D
1484330749.86,49417,5.94,71322.8,-10.77,-12.29,-12.29,0,*6E
1484330751.1,49418,5.94,71320.5,-10.75,-12.25,-12.25,0,*63
1484330752.37,49419,5.94,71324.3,-10.75,-12.15,-12.25,0,*61
1484330753.59,49420,5.94,71324.5,-10.77,-12.29,-12.29,0,*6A
1484330754.81,49421,5.94,71320.5,-10.77,-12.21,-12.21,0,*6B
1484330756.03,49422,5.94,71322.8,-10.77,-12.21,-12.29,0,*60
1484330757.24,49423,5.94,71322.0,-10.77,-12.29,-12.29,0,*69
1484330758.46,49424,5.94,71326.0,-10.77,-12.29,-12.21,0,*66
1484330759.68,49425,5.94,71324.0,-10.77,-12.29,-12.29,0,*6F
1484330760.93,49426,5.94,71322.8,-10.75,-12.25,-12.29,0,*62
1484330762.2,49427,5.94,71320.8,-10.75,-12.15,-12.29,0,*60
1484330763.44,49428,5.94,71322.3,-10.75,-12.25,-12.29,0,*6C
1484330764.69,49429,5.94,71324.0,-10.75,-12.25,-12.25,0,*61
1484330765.91,49430,5.94,71324.3,-10.77,-12.21,-12.29,0,*63
1484330767.13,49431,5.94,71326.0,-10.77,-12.21,-12.21,0,*6A
1484330768.4,49432,5.94,71326.8,-10.75,-12.15,-12.25,0,*68
1484330769.66,49433,5.94,71326.5,-10.77,-12.15,-12.15,0,*68
1484330770.95,49434,5.94,71326.3,-10.75,-12.15,-12.15,0,*6D
1484330772.22,49435,5.94,71324.8,-10.75,-12.15,-12.25,0,*6F
1484330773.43,49436,5.94,71324.3,-10.77,-12.29,-12.25,0,*61
1484330774.72,49437,5.94,71326.0,-10.75,-12.15,-12.15,0,*6E
1484330775.97,49438,5.94,71324.5,-10.75,-12.25,-12.25,0,*61
1484330777.24,49439,5.94,71326.0,-10.75,-12.15,-12.21,0,*67
1484330778.5,49440,5.94,71326.8,-10.75,-12.15,-12.25,0,*6D
1484330779.72,49441,5.94,71324.5,-10.77,-12.21,-12.21,0,*6D
1484330780.97,49442,5.94,71324.0,-10.75,-12.25,-12.25,0,*6C
1484330782.24,49443,5.94,71322.3,-10.75,-12.15,-12.25,0,*6E
1484330783.51,49444,5.94,71320.5,-10.75,-12.25,-12.15,0,*69
1484330784.75,49445,5.94,71326.5,-10.75,-12.25,-12.25,0,*6B
1484330786.0,49446,5.94,71322.0,-10.75,-12.25,-12.25,0,*68
1484330787.21,49447,5.94,71320.5,-10.77,-12.29,-12.29,0,*6B
1484330788.45,49448,5.94,71320.8,-10.77,-12.15,-12.25,0,*67
1484330789.7,49449,5.94,71320.5,-10.73,-12.25,-12.15,0,*62
1484330790.96,49450,5.94,71320.5,-10.73,-12.15,-12.15,0,*69
1484330792.25,49451,5.94,71322.3,-10.75,-12.15,-12.15,0,*6E
1484330793.52,49452,5.94,71322.3,-10.75,-12.25,-12.15,0,*6E
1484330794.79,49453,5.94,71326.5,-10.75,-12.15,-12.25,0,*6F
1484330796.08,49454,5.94,71320.0,-10.75,-12.15,-12.15,0,*6B
1484330797.37,49455,5.94,71324.8,-10.75,-12.15,-12.15,0,*6A
1484330798.66,49456,5.94,71320.5,-10.75,-12.15,-12.11,0,*6D
1484330799.94,49457,5.94,71322.0,-10.75,-12.25,-12.11,0,*6F
1484330801.17,49458,5.94,71326.8,-10.77,-12.29,-12.15,0,*6A
1484330802.46,49459,5.94,71320.3,-10.75,-12.15,-12.15,0,*66
1484330803.69,49460,5.94,71322.3,-10.77,-12.21,-12.29,0,*66
1484330804.98,49461,5.94,71324.0,-10.75,-12.15,-12.15,0,*6D
1484330806.24,49462,5.94,71324.5,-10.75,-12.25,-12.15,0,*6D
1484330807.46,49463,5.94,71326.3,-10.77,-12.29,-12.29,0,*6D
1484330808.73,49464,5.94,71324.8,-10.75,-12.29,-12.15,0,*67
1484330810.0,49465,5.94,71322.0,-10.75,-12.15,-12.25,0,*6A
1484330811.26,49466,5.94,71324.5,-10.75,-12.15,-12.25,0,*69
1484330812.53,49467,5.94,71318.8,-10.75,-12.25,-12.15,0,*68
1484330813.78,49468,5.94,71326.5,-10.75,-12.25,-12.25,0,*64
1484330815.02,49469,5.94,71322.3,-10.75,-12.25,-12.25,0,*65
1484330816.27,49470,5.94,71324.8,-10.75,-12.25,-12.29,0,*61
1484330817.52,49471,5.94,71326.3,-10.75,-12.25,-12.25,0,*6C
1484330818.78,49472,5.94,71322.8,-10.75,-12.15,-12.25,0,*6C
1484330820.05,49473,5.94,71326.5,-10.75,-12.15,-12.25,0,*6D
1484330821.32,49474,5.94,71322.5,-10.75,-12.25,-12.15,0,*6A
1484330822.61,49475,5.94,71328.3,-10.75,-12.15,-12.15,0,*68
1484330823.9,49476,5.94,71324.0,-10.75,-12.15,-12.15,0,*6B
1484330825.12,49477,5.94,71326.5,-10.77,-12.21,-12.29,0,*60
1484330826.41,49478,5.94,71322.8,-10.75,-12.15,-12.15,0,*65
1484330827.67,49479,5.94,71322.0,-10.77,-12.15,-12.15,0,*66
1484330828.91,49480,5.94,71326.5,-10.73,-12.03,-12.11,0,*67
1484330830.16,49481,5.94,71324.0,-10.73,-12.15,-12.25,0,*66
1484330831.4,49482,5.94,71326.3,-10.73,-12.25,-12.15,0,*65
1484330832.65,49483,5.94,71322.3,-10.73,-12.15,-12.25,0,*64
1484330833.89,49484,5.94,71322.3,-10.73,-12.15,-12.25,0,*63
1484330835.12,49485,5.94,71320.3,-10.73,-12.25,-12.25,0,*61
1484330836.34,49486,5.94,71326.0,-10.73,-12.25,-12.25,0,*62
1484330837.58,49487,5.94,71326.0,-10.73,-12.25,-12.15,0,*60
1484330838.85,49488,5.94,71320.8,-10.73,-12.15,-12.15,0,*6C
1484330840.09,49489,5.94,71326.3,-10.73,-12.25,-12.15,0,*6E
1484330841.36,49490,5.94,71324.3,-10.73,-12.15,-12.15,0,*65
1484330842.65,49491,5.94,71324.5,-10.75,-12.15,-12.15,0,*62
1484330843.94,49492,5.94,71324.5,-10.75,-12.15,-12.15,0,*61
1484330845.23,49493,5.94,71320.3,-10.75,-12.11,-12.15,0,*64
1484330846.5,49494,5.94,71320.8,-10.75,-12.15,-12.29,0,*68
1484330847.75,49495,5.94,71326.0,-10.75,-12.25,-12.25,0,*66
1484330849.02,49496,5.94,71326.5,-10.75,-12.15,-12.25,0,*66
1484330850.31,49497,5.94,71326.5,-10.75,-12.11,-12.15,0,*60
1484330851.55,49498,5.94,71324.8,-10.75,-12.25,-12.25,0,*6B
1484330852.8,49499,5.94,71324.0,-10.73,-12.25,-12.15,0,*6F
1484330854.07,49500,5.94,71326.5,-10.73,-12.15,-12.11,0,*69
1484330855.34,49501,5.94,71326.0,-10.73,-12.15,-12.15,0,*6C
1484330856.6,49502,5.94,71324.3,-10.73,-12.15,-12.15,0,*6F
1484330857.87,49503,5.94,71326.0,-10.73,-12.15,-12.15,0,*6E
1484330859.14,49504,5.94,71326.8,-10.73,-12.15,-12.15,0,*69
1484330860.41,49505,5.94,71326.3,-10.73,-12.11,-12.11,0,*68
1484330861.68,49506,5.94,71326.8,-10.73,-12.11,-12.15,0,*6F
1484330862.95,49507,5.94,71324.0,-10.75,-12.25,-12.15,0,*6F
1484330864.19,49508,5.94,71324.3,-10.73,-12.15,-12.25,0,*66
1484330865.44,49509,5.94,71324.8,-10.73,-12.25,-12.15,0,*67
1484330866.7,49510,5.94,71324.8,-10.73,-12.11,-12.15,0,*68
1484330867.99,49511,5.94,71328.0,-10.71,-12.11,-12.11,0,*6F
1484330869.26,49512,5.94,71324.8,-10.73,-12.15,-12.15,0,*6E
1484330870.51,49513,5.94,71326.0,-10.73,-12.25,-12.15,0,*6C
1484330871.73,49514,5.94,71324.5,-10.73,-12.25,-12.25,0,*68
1484330873.02,49515,5.94,71326.0,-10.75,-12.11,-12.11,0,*6F
1484330874.27,49516,5.94,71326.5,-10.73,-12.25,-12.11,0,*6D
1484330875.54,49517,5.94,71324.5,-10.73,-12.15,-12.11,0,*6F
1484330876.81,49518,5.94,71326.3,-10.73,-12.15,-12.15,0,*64
1484330878.05,49519,5.94,71326.8,-10.73,-12.15,-12.25,0,*66
1484330879.32,49520,5.94,71324.8,-10.73,-12.15,-12.15,0,*6F
1484330880.59,49521,5.94,71326.5,-10.73,-12.15,-12.15,0,*6E
1484330881.81,49522,5.94,71328.0,-10.73,-12.25,-12.25,0,*6D
1484330883.08,49523,5.94,71328.5,-10.73,-12.15,-12.15,0,*6C
1484330884.35,49524,5.94,71330.8,-10.73,-12.15,-12.15,0,*6B
1484330885.61,49525,5.94,71326.8,-10.73,-12.15,-12.15,0,*6A
1484330886.84,49526,5.94,71330.5,-10.73,-12.25,-12.25,0,*69
1484330888.1,49527,5.94,71328.8,-10.73,-12.15,-12.15,0,*68
1484330889.37,49528,5.94,71330.0,-10.73,-12.15,-12.15,0,*67
1484330890.62,49529,5.94,71330.5,-10.73,-12.25,-12.15,0,*65
1484330891.84,49530,5.94,71326.5,-10.73,-12.25,-12.25,0,*6E
1484330893.08,49531,5.94,71330.0,-10.73,-12.15,-12.25,0,*6C
1484330894.3,49532,5.94,71330.0,-10.73,-12.25,-12.25,0,*6C
1484330895.58,49533,5.94,71330.5,-10.71,-12.21,-12.11,0,*6C
1484330896.85,49534,5.94,71328.8,-10.73,-12.15,-12.11,0,*6E
1484330898.14,49535,5.94,71330.5,-10.75,-12.15,-12.15,0,*6D